Regional Weather Roundup
Issued by NWS Spokane, WA

Home | Current Version | Previous Version | Text Only | Print | Product List | Glossary On
Versions: 1 2 3 4 5 6 7 8 9 10 11 12 13 14 15 16 17 18 19 20 21 22 23 24 25 26 27 28 29 30 31 32 33 34 35 36 37 38 39 40 41 42 43 44 45 46 47 48 49 50
000
NZUS01 KOTX 221510
RWROTX
EASTERN WASHINGTON/NORTHERN IDAHO ROUNDUP
NATIONAL WEATHER SERVICE, SPOKANE WA
800 AM PDT MON SEP 22 2014

Note: "fair" indicated few or no clouds below 12,000 feet with no
significant weather and/or obstructions to visibility.

...NORTHEAST WASHINGTON AND NORTHERN IDAHO PANHANDLE...

CITY           SKY/WX    TMP DP  RH WIND       PRES   REMARKS
SPOKANE INTL   PTSUNNY   60  44  55 SE6       29.93R
SPOKANE DOWNTO MOSUNNY   58  48  69 CALM      29.93S
COEUR D ALENE  MOSUNNY   57  48  72 SE3       29.94S
DEER PARK      MOSUNNY   56  45  66 CALM      29.94R
SANDPOINT      SUNNY     50  50 100 CALM      29.94S

...SOUTHEAST WASHINGTON AND SOUTHERN IDAHO PANHANDLE...

CITY           SKY/WX    TMP DP  RH WIND       PRES   REMARKS
WALLA WALLA    PTSUNNY   72  47  40 SE6       29.91R
PULLMAN/MOSCOW CLOUDY    61  41  47 CALM      29.97R
LEWISTON       CLOUDY    65  46  50 E3        29.91S
LOWELL           N/A     55  51  86 CALM      30.00R

...COLUMBIA BASIN...

CITY           SKY/WX    TMP DP  RH WIND       PRES   REMARKS
EPHRATA        MOSUNNY   63  42  46 N5        29.87R
MOSES LAKE     MOSUNNY   58  42  55 CALM      29.88R
TRI CITIES     SUNNY     71  53  52 SW12      29.86R
HERMISTON      MOSUNNY   65  49  56 S3        29.88R
PENDLETON      MOSUNNY   61  43  51 S5        29.92R

...EAST SLOPES CASCADES...

CITY           SKY/WX    TMP DP  RH WIND       PRES   REMARKS
THE DALLES     MOSUNNY   67  53  61 W16       29.92R
YAKIMA         CLOUDY    61  52  72 VRB7      29.88S
ELLENSBURG     CLOUDY    62  52  69 E7        29.89S
WENATCHEE      CLOUDY    66  48  52 NW5       29.87R
OMAK           MOSUNNY   60  43  53 CALM      29.88R

...SOUTHERN BRITISH COLUMBIA...

CITY           SKY/WX    TMP DP  RH WIND       PRES   REMARKS
PENTICTON      PTSUNNY   61  50  67 NW8       29.88R
CASTLEGAR      MOSUNNY   48  48 100 S2        29.96R
CRANBROOK      PTSUNNY   50  46  87 CALM      29.99R

...WESTERN MONTANA...

CITY           SKY/WX    TMP DP  RH WIND       PRES   REMARKS
MISSOULA       SUNNY     54  42  64 CALM      30.02R

...NEIGHBORING CITIES...

CITY           SKY/WX    TMP DP  RH WIND       PRES   REMARKS
SEATTLE        CLOUDY    60  57  89 S6        30.00R
CALGARY        MOSUNNY   59  43  55 S7        29.87S



USA.gov is the U.S. government's official web portal to all federal, state and local government web resources and services.